Hourly Data Report for September 08, 2017

All times are specified in Local Standard Time (LST). Add 1 hour to adjust for Daylight Saving Time where and when it is observed.

MIRAMICHI RCS
NEW BRUNSWICK

47°00'34.000" N
65°27'54.000" W
33.00 m
8100989
71744
ACQ

Download Data

Hourly Data (September 2017)
Hourly Data Report for September 8, 2017
Temp Definition
°C
Dew Point Temp Definition
°C
Rel Hum Definition
%
Wind Dir Definition
10's deg

Wind Spd Definition
km/h
Visibility Definition
km
Stn Press Definition
kPa
Hmdx Definition


Wind Chill Definition


Weather Definition


TIME
00:00 16.7 15.5 93 21 18   100.31     LegendNANA
01:00 16.0 15.0 94 22 14   100.35     LegendNANA
02:00 15.2 14.0 93 24 14   100.40     LegendNANA
03:00 14.1 13.2 95 23 9   100.43     LegendNANA
04:00 13.6 12.5 93 24 11   100.46     LegendNANA
05:00 13.3 12.4 94 24 12   100.50     LegendNANA
06:00 12.8 11.9 95 23 12   100.53     LegendNANA
07:00 13.4 12.1 92 22 13   100.65     LegendNANA
08:00 15.0 12.3 84 23 18   100.72     LegendNANA
09:00 16.6 12.5 77 24 21   100.80     LegendNANA
10:00 17.9 11.9 68 24 23   100.85     LegendNANA
11:00 19.0 11.8 63 24 19   100.87     LegendNANA
12:00 20.5 11.7 57 25 23   100.88     LegendNANA
13:00 21.1 11.3 54 24 22   100.90     LegendNANA
14:00 21.3 10.9 52 29 18   100.93     LegendNANA
15:00 21.4 10.4 50 27 19   100.97     LegendNANA
16:00 21.3 10.2 49 25 16   101.03     LegendNANA
17:00 21.4 10.7 51 22 11   101.05     LegendNANA
18:00 20.6 10.9 54 25 8   101.10     LegendNANA
19:00 17.8 12.2 70 1 9   101.19     LegendNANA
20:00 16.2 12.2 77 6 6   101.30     LegendNANA
21:00 15.2 13.0 87 1 5   101.34     LegendNANA
22:00 14.0 12.9 94 15 1   101.39     LegendNANA
23:00 13.6 12.8 95 27 1   101.40     LegendNANA

Notes on Data Quality.

Legend

  • E = Estimated
  • M = Missing
  • NA = Not Available
  • ‡ = Partner data that is not subject to review by the National Climate Archives
Date modified: